Printer-friendly version

IAU Minor Planet Center

Minor Planet Center

MPEC 2007-F19 : 2007 EP88

The following Minor Planet Electronic Circular may be linked-to from your own Web pages, but must not otherwise be redistributed electronically.


Read MPEC 2007-F18 Read MPEC 2007-F20


M.P.E.C. 2007-F19                                Issued 2007 Mar. 16, 19:59 UT

     The Minor Planet Electronic Circulars contain information on unusual
         minor planets and routine data on comets.  They are published
   on behalf of Commission 20 of the International Astronomical Union by the
          Minor Planet Center, Smithsonian Astrophysical Observatory,
                          Cambridge, MA 02138, U.S.A.

             Prepared using the Tamkin Foundation Computer Network

                              MPC@CFA.HARVARD.EDU
          URL http://cfa-www.harvard.edu/iau/mpc.html  ISSN 1523-6714

                                   2007 EP88

Observations:
     K07E88P* C2007 03 15.51631 12 40 08.58 -41 46 37.0          19.1 V EF019E12
     K07E88P  C2007 03 15.52447 12 40 05.08 -41 46 31.3          20.1 V EF019E12
     K07E88P  C2007 03 15.53263 12 40 01.84 -41 46 24.7          19.2 V EF019E12
     K07E88P  C2007 03 15.54082 12 39 58.60 -41 46 18.5          19.2 V EF019E12
     K07E88P  C2007 03 15.56432 12 39 49.06 -41 46 01.2          19.4 V EF019E12
     K07E88P  C2007 03 15.57470 12 39 44.85 -41 45 53.2          19.2 V EF019E12
     K07E88P  C2007 03 15.57991 12 39 42.66 -41 45 49.1          19.1 V EF019E12
     K07E88P  C2007 03 15.64339 12 39 16.88 -41 45 00.9          19.3 V EF019E12
     K07E88P  C2007 03 15.66984 12 39 05.98 -41 44 38.7          19.3 V EF019E12
     K07E88P  C2007 03 16.28770 12 34 59.29 -41 36 14.9          19.3 R EF019651
     K07E88P  C2007 03 16.28880 12 34 59.08 -41 36 14.2          19.4 R EF019651
     K07E88P  C2007 03 16.29426 12 34 56.76 -41 36 08.3          19.5 R EF019651
     K07E88P 5C2007 03 16.36155 12 34 29.59 -41 35 10.3          19.5 R EF019673
     K07E88P 5C2007 03 16.36354 12 34 28.28 -41 35 07.2                 EF019673
     K07E88P 5C2007 03 16.37388 12 34 24.48 -41 34 59.1                 EF019673
     K07E88P 5C2007 03 16.37720 12 34 23.81 -41 34 57.3                 EF019673
     K07E88P  C2007 03 16.51514 12 33 28.760-41 32 37.48         19.0 R EF019E12

Observer details:
651 Grasslands Observatory, Tucson.  Observer J. E. McGaha.  0.62-m f/5.1
    Newtonian reflector + CCD.
673 Table Mountain Observatory, Wrightwood.  Observer D. Mayes.  0.6-m
    reflector + CCD.
E12 Siding Spring Survey.  Observers G. J. Garradd, R. H. McNaught.  Measurers
    E. C. Beshore, E. J. Christensen, G. J. Garradd, A. R. Gibbs, A. D. Grauer,
    R. E. Hill, R. A. Kowalski, S. M. Larson, R. H. McNaught.  0.5-m Uppsala
    Schmidt + CCD.

Orbital elements:
2007 EP88                                                Earth MOID = 0.1469 AU
Epoch 2007 Apr. 10.0 TT = JDT 2454200.5                 MPC
M 152.85022              (2000.0)            P               Q
n   1.31054767     Peri.   48.06791     +0.94242219     -0.27712237
a   0.8269911      Node   326.71329     +0.09892416     +0.76571861
e   0.8903340      Incl.   19.94322     +0.31945959     +0.58041209
P   0.75           H   18.6           G   0.15           U   9
Residuals in seconds of arc
070315 E12  0.7+  0.1-    070315 E12  0.2-  0.3+    070316 673  0.6+  0.2-
070315 E12  1.4-  0.4-    070315 E12  0.7+  0.8-    070316 673 (5.0-  1.1+)
070315 E12  0.6-  0.1+    070315 E12  0.7-  0.3+    070316 673  0.3-  0.0
070315 E12  0.3+  0.3+    070316 651 (2.3-  0.4-)   070316 673 (7.3+  1.1-)
070315 E12  0.5+  0.0     070316 651  0.3+  0.6-    070316 E12  0.0   0.1+
070315 E12  0.6+  0.2+    070316 651  0.7-  0.6+

Ephemeris:
2007 EP88                a,e,i = 0.83, 0.89, 20                  q = 0.0907
Date    TT    R. A. (2000) Decl.     Delta      r     Elong.  Phase     V
2007 03 11    13 09.72   -42 21.2    0.576    1.421   127.7    33.6    19.6
2007 03 21    12 03.87   -40 01.5    0.563    1.472   139.9    25.8    19.4
2007 03 31    11 06.28   -34 24.6    0.589    1.512   143.0    23.4    19.5
2007 04 10    10 26.78   -27 36.6    0.653    1.540   136.1    26.8    19.8
2007 04 20    10 03.75   -21 28.1    0.744    1.557   125.2    31.8    20.3
2007 04 30    09 52.39   -16 39.1    0.853    1.563   114.1    36.0    20.7
2007 05 10    09 48.70   -13 06.7    0.969    1.559   104.0    38.9    21.0
2007 05 20    09 50.12   -10 36.4    1.085    1.543    94.7    40.8    21.3
2007 05 30    09 55.04   -08 54.2    1.196    1.517    86.3    41.8    21.5
2007 06 09    10 02.41   -07 48.8    1.297    1.479    78.5    42.3    21.7
2007 06 19    10 11.62   -07 11.8    1.384    1.429    71.2    42.3    21.7
2007 06 29    10 22.26   -06 57.2    1.454    1.366    64.3    42.1    21.7

Kyle E. Smalley              (C) Copyright 2007 MPC           M.P.E.C. 2007-F19

Read MPEC 2007-F18 Read MPEC 2007-F20


Our Web policy. Index to the CBAT/MPC/ICQ pages.


Valid HTML 4.01!